Regional Weather Roundup
Issued by NWS Sioux Falls, SD

Home | Current Version | Previous Version | Graphics & Text | Print | Product List | Glossary Off
Versions: 1 2 3 4 5 6 7 8 9 10 11 12 13 14 15 16 17 18 19 20 21 22 23 24 25 26 27 28 29 30 31 32 33 34 35 36 37 38 39 40 41 42 43 44 45 46 47 48 49 50

000
ASUS43 KFSD 041010
RWRFSD

WEATHER ROUNDUP FOR SE SOUTH DAKOTA/SW MINNESOTA/NW IOWA
NATIONAL WEATHER SERVICE SIOUX FALLS SD
400 AM CST SUN DEC 04 2016

NOTE: "FAIR" INDICATES FEW OR NO CLOUDS BELOW 12,000 FEET WITH NO
SIGNIFICANT WEATHER AND OR OBSTRUCTIONS TO VISIBILITY.


SDZ038>040-050-052>070-041100-
SOUTHEAST SOUTH DAKOTA

CITY           SKY/WX    TMP DP  RH WIND       PRES   REMARKS
BROOKINGS      CLOUDY    34  30  86 S13       29.87F WCI  25
CHAMBERLAIN    CLEAR     31  27  84 W7        29.89S WCI  24
HURON          CLOUDY    29  28  96 S8        29.87F WCI  21
MADISON        CLOUDY    32  32 100 SW14      29.89F WCI  22
MITCHELL       MOCLDY    30  27  88 SW8       29.90F WCI  22
SIOUX FALLS    CLOUDY    34  33  96 SW9       29.91F WCI  27
WINNER         FAIR      31  24  75 W7        29.90F WCI  24
YANKTON        CLEAR     30  28  93 SE7       29.92F WCI  23
$$

MNZ071-072-080-081-089-090-097-098-041100-
SOUTHWEST MINNESOTA

CITY           SKY/WX    TMP DP  RH WIND       PRES   REMARKS
FAIRMONT       LGT RAIN  33  32  96 S10       29.97F WCI  25
JACKSON        CLOUDY    32  32 100 S12       29.95F FOG     WCI  23
LUVERNE        CLOUDY    32  32 100 S10       29.93F FOG     WCI  24
MARSHALL       CLOUDY    35  32  88 S14       29.91F WCI  26
MONTEVIDEO     CLOUDY    34  34 100 SW8       29.93F WCI  27
PIPESTONE      CLOUDY    34  34 100 SW13      29.89F FOG     WCI  25
REDWOOD FALLS  CLOUDY    34  32  92 S9        29.94F WCI  27
TRACY          CLOUDY    35  33  94 SW13G20   29.92F WCI  26
WINDOM         CLOUDY    34  34 100 CALM      29.93F
WORTHINGTON    CLOUDY    33  32  96 S13       29.93F WCI  24
$$

IAZ001>003-012>014-020>022-031-032-NEZ013-014-SDZ071-041100-
NORTHWEST IOWA

CITY           SKY/WX    TMP DP  RH WIND       PRES   REMARKS
CHEROKEE       CLOUDY    33  33 100 S6        29.96F WCI  28
DENISON        CLOUDY    34  34 100 SW7       29.97F FOG     WCI  28
ESTHERVILLE    CLOUDY    32  32 100 S12       29.95F FOG     WCI  23
LE MARS        CLOUDY    34  34 100 S8        29.97F WCI  27
ORANGE CITY    CLOUDY    34  34 100 SW10      29.95S FOG     WCI  26
SHELDON        CLOUDY    34  34 100 SW15      29.93F WCI  24
SIOUX CITY     CLOUDY    35  34  96 S3        29.98F
SPENCER        CLOUDY    33  33 100 S15       29.95F FOG     WCI  23
STORM LAKE     FOG       32  32 100 SW8       29.96F VSB 1/2 WCI  25
$$

ABBREVIATIONS USED IN REMARKS
   TC - TEMPERATURE IN CELSIUS
  WCI - WIND CHILL INDEX
   HX - HEAT INDEX
  VSB - VISIBILITY





USA.gov is the U.S. government's official web portal to all federal, state and local government web resources and services.